Flag for Ecuador Weather past 2 weeks in Quito, Ecuador

Now
72 °F

Passing clouds.


Feels Like: 71 °F
Forecast: 51 / 63 °F
Wind: No wind

Location: Cali / Alfonso Bonillaaragon

Current Time: Mar 4, 2015 at 2:35:12 AM

Latest Report: Mar 4, 2015 at 2:00 AM


Visibility: N/A

Pressure: 29.88 "Hg

Humidity: 83%

Dew point: 66 °F

Location of QuitoLocation

Historic Weather in Quito — Graph

°F

Quito temperature yesterday

Maximum temperature yesterday: 90 °F (at 2:00 PM)
Minimum temperature yesterday: 68 °F (at 4:00 AM)
Average temperature yesterday: 78 °F

Past Weeks' High & Low Weather Summary

 TemperatureHumidityPressure
High90 °F (Feb 17, 3:00 PM)100% (Feb 21, 7:00 AM)30.35 "Hg (Feb 21, 7:00 AM)
Low57 °F (Mar 2, 12:00 AM)38% (Feb 23, 3:00 PM)29.72 "Hg (Feb 27, 4:00 PM)
Average76 °F70%29.94 "Hg
* Reported Feb 17 1:00 AM — Mar 4 1:00 AM, Quito, Weather by CustomWeather, © 2015

Note: Actual official high and low records may vary slightly from our data, if they occured in-between our weather recording intervals... More about our weather records

Advertising

Quito weather history for previous 24 hours

 ConditionsComfort  
Time TempWeatherWind HumidityBarometerVisibility
1:00 AM
Wed, Mar 4
73 °FPassing clouds.No wind78%29.90 "HgN/A
12:00 AM73 °FPassing clouds.5 mph78%29.90 "HgN/A
11:00 PM
Tue, Mar 3
73 °FPassing clouds.3 mph78%29.91 "HgN/A
10:00 PM75 °FScattered showers. Passing clouds.5 mph74%29.89 "HgN/A
9:00 PM77 °FScattered showers. Partly cloudy.7 mph69%29.87 "HgN/A
8:00 PM75 °FScattered showers. Passing clouds.5 mph69%29.83 "HgN/A
7:00 PM79 °FScattered showers. Passing clouds.9 mph61%29.81 "HgN/A
6:00 PM81 °FBroken clouds.9 mph62%29.78 "HgN/A
5:00 PM86 °FScattered showers. Broken clouds.12 mph52%29.76 "HgN/A
4:00 PM88 °FBroken clouds.12 mph46%29.77 "HgN/A
3:00 PM88 °FScattered clouds.14 mph49%29.79 "HgN/A
2:00 PM90 °FScattered clouds.9 mph49%29.83 "HgN/A
1:00 PM84 °FScattered clouds.6 mph55%29.88 "HgN/A
12:00 PM86 °FScattered clouds.5 mph55%29.91 "HgN/A
11:00 AM84 °FPartly sunny.5 mph55%29.95 "HgN/A
10:00 AM81 °FPassing clouds.5 mph62%29.95 "HgN/A
9:00 AM77 °FPassing clouds.5 mph69%29.94 "HgN/A
8:00 AM75 °FScattered clouds.No wind74%29.94 "HgN/A
7:00 AM70 °FScattered clouds.No wind94%29.94 "HgN/A
6:00 AM70 °FPassing clouds.No wind88%29.91 "HgN/A
5:00 AM70 °FPassing clouds.5 mph88%29.88 "HgN/A
4:00 AM68 °FPartly cloudy.No wind88%29.87 "HgN/A
3:00 AM70 °FPassing clouds.5 mph88%29.87 "HgN/A
2:00 AM72 °FMostly cloudy.6 mph83%29.90 "HgN/A
Weather by CustomWeather, © 2015

See weather overviewHow to use our weather pages